Wetbulb
55.89 56.38 56.77 56.72 56.91 57.10 56.90 57.15 57.35 57.74 57.55 57.10 57.17 57.10 56.91 56.93 57.43 57.09 56.99 57.08 56.91 57.84 59.25 60.26 61.80 64.46 61.86 62.59 63.49 62.28 60.68 61.57 59.85 61.09 62.86 66.99 70.33 69.59 68.82 68.87 68.44 68.99 68.21
55.41 55.43 55.69 56.10 56.24 56.06 56.20 56.58 56.98 56.27 56.81 56.46 55.96 55.58 55.44 55.51 55.87 55.43 54.58 55.01 54.50 54.22 55.27 56.58 57.57 60.25 63.13 63.88 62.53 63.27 62.36 62.82 60.63 61.34 62.38 63.58 66.87 69.33 68.78 68.01 67.49 68.00 68.37
54.66 54.54 55.02 55.46 55.53 55.45 55.56 55.87 55.74 55.42 55.29 55.12 54.95 54.36 54.35 54.48 54.38 54.85 54.45 53.42 53.33 53.33 53.43 53.90 55.06 57.60 60.56 61.66 62.10 62.06 61.81 62.24 61.87 60.71 59.63 62.43 64.63 66.19 67.16 67.71 66.93 67.74 68.32
53.73 53.68 53.77 54.00 54.58 54.51 54.83 54.57 54.58 54.36 53.82 54.12 53.94 53.78 53.90 54.02 53.89 53.60 53.20 52.99 52.75 52.62 52.46 52.44 52.83 54.73 56.85 59.09 60.93 62.04 62.39 61.19 61.25 59.88 59.84 60.78 63.17 65.36 64.72 62.31 63.25 66.29 67.10
52.54 52.71 53.02 53.44 53.38 53.33 53.15 53.32 53.36 53.34 53.40 53.62 53.38 53.42 53.47 52.36 52.01 52.01 51.03 51.26 51.03 50.53 51.29 50.84 51.95 52.83 53.25 54.28 56.60 60.29 61.91 61.13 59.34 58.90 58.81 59.06 60.28 62.06 62.08 62.81 63.51 65.56 66.80
51.50 51.59 52.34 52.40 52.24 51.41 51.51 51.84 52.11 52.47 53.07 52.62 52.14 51.81 52.00 49.40 46.73 46.98 48.26 48.30 48.49 48.72 48.55 49.55 50.88 51.62 53.04 51.20 51.26 53.21 57.21 60.61 59.62 58.73 60.03 59.51 60.14 60.76 61.33 63.96 63.01 62.88 62.11
49.56 50.11 50.49 50.78 49.78 49.83 50.48 50.87 51.54 51.61 51.78 51.61 50.16 48.03 48.29 50.56 45.84 44.72 45.74 48.82 48.97 47.87 48.98 48.56 50.44 50.45 51.33 54.92 53.90 52.90 52.95 51.93 53.24 60.33 59.12 60.59 61.41 61.84 62.75 63.39 64.64 62.66 62.78
47.58 48.11 48.81 48.68 47.93 48.13 47.39 50.25 50.94 50.73 50.54 49.27 47.79 50.97 50.94 49.90 45.25 43.63 44.30 47.20 48.03 47.17 47.48 47.72 50.56 50.99 52.68 54.21 58.08 58.82 59.79 60.45 61.23 59.79 60.78 60.15 63.02 64.78 64.80 64.85 65.99 65.32 68.77
44.78 45.75 45.97 45.74 44.77 46.36 47.65 49.27 50.23 49.87 48.15 48.89 50.05 49.87 47.73 47.90 44.84 42.61 43.63 45.94 46.38 45.20 46.42 49.06 50.22 51.16 49.08 46.08 56.34 57.70 57.95 57.38 56.72 51.18 52.18 52.31 51.79 50.66 58.05 65.71 63.53 63.41 63.19
43.00 43.14 42.25 41.71 43.25 44.81 47.03 48.21 49.83 47.36 48.06 47.58 47.51 47.01 46.58 47.83 44.77 42.44 44.23 46.82 44.55 45.12 47.52 49.13 46.52 49.00 46.03 44.29 53.56 56.48 55.23 59.23 60.07 56.92 54.99 53.12 52.48 58.15 50.98 61.96 61.79 60.81 59.86
41.96 41.08 40.58 41.31 43.08 44.44 46.21 48.51 47.18 47.60 45.69 45.23 45.90 46.04 46.92 48.61 47.50 42.13 41.87 44.06 44.32 44.83 45.84 47.53 51.98 45.64 43.76 43.69 43.04 54.91 58.10 59.37 55.32 57.30 59.14 56.36 56.90 56.92 57.86 60.90 62.02 61.39 59.05
40.03 39.62 39.73 41.12 43.28 44.97 45.78 45.44 46.44 46.55 45.13 44.70 45.89 45.91 47.08 48.04 44.06 43.10 41.45 41.40 42.99 45.12 45.64 48.75 51.99 43.41 42.32 42.14 42.97 45.40 43.95 48.06 56.42 56.12 55.37 55.70 56.92 57.26 60.15 61.19 61.57 62.09 62.09
39.01 38.93 39.08 41.81 43.50 44.25 43.68 44.43 45.56 45.39 44.85 44.72 45.60 45.77 45.93 48.32 46.43 43.37 41.80 41.30 42.67 44.28 48.42 48.25 43.34 42.60 44.86 47.92 42.14 43.04 44.86 56.04 55.24 55.12 55.64 55.88 56.72 58.47 60.15 60.45 61.81 63.74 65.08
37.83 37.69 38.59 40.04 41.42 42.95 44.38 45.56 44.80 44.32 44.05 44.23 46.38 47.18 45.72 47.87 45.17 46.18 46.67 45.67 45.19 45.97 46.57 48.70 46.98 46.96 44.29 48.70 50.23 50.73 56.48 56.20 55.09 55.05 55.34 57.30 59.13 59.22 59.64 60.66 60.92 62.63 61.60
36.68 37.00 37.99 38.72 40.03 41.64 41.70 43.32 43.50 44.94 43.95 43.54 47.36 47.54 47.91 44.92 44.97 43.08 41.49 42.44 42.10 48.80 50.78 55.21 55.34 56.23 58.25 58.23 58.07 57.06 58.31 58.38 57.15 57.16 56.88 57.21 57.55 58.13 59.51 61.07 61.43 61.52 58.60
36.03 36.50 37.41 38.10 39.14 40.03 40.26 41.82 41.30 40.38 40.07 39.96 39.68 42.11 47.01 42.47 40.32 39.44 38.85 38.35 38.08 41.59 52.33 55.09 55.65 56.05 56.00 55.81 56.30 56.28 57.51 55.56 56.98 57.19 57.77 57.57 56.94 58.79 59.32 60.43 61.14 61.18 58.78
35.73 35.98 37.07 36.66 37.16 38.17 38.95 39.13 39.50 42.60 41.80 41.39 40.44 39.96 38.64 39.31 38.54 37.86 38.37 37.89 39.24 44.13 56.17 57.07 56.81 55.18 56.25 57.94 57.59 56.81 57.64 58.72 59.42 58.84 58.77 58.88 59.73 60.33 58.30 58.70 59.16 59.71 59.27
35.65 35.48 35.96 36.31 36.46 37.79 38.21 38.54 39.62 40.79 42.26 47.57 45.88 42.08 41.55 39.50 39.24 38.62 38.64 42.36 54.15 52.35 58.15 58.54 56.45 57.23 58.05 57.44 56.86 57.87 59.53 59.07 59.45 59.81 60.27 60.25 61.63 61.04 59.50 59.29 60.20 60.72 59.57
34.14 34.20 34.49 35.64 36.40 36.83 37.25 38.54 40.48 40.92 42.82 45.62 49.70 45.50 44.73 42.84 41.45 40.51 39.45 52.61 55.06 56.91 57.72 58.91 57.78 58.31 58.60 57.76 56.64 56.93 58.99 60.43 60.72 61.02 60.90 61.27 62.50 62.58 62.26 60.61 60.22 52.57 53.55
33.79 33.14 33.44 35.08 34.59 35.09 36.43 37.06 37.74 39.27 42.02 48.68 48.21 48.72 51.73 45.83 49.72 51.61 56.63 54.28 54.36 56.83 59.88 59.79 58.34 58.89 58.88 58.37 58.20 58.50 57.69 57.79 60.19 61.24 61.82 62.18 62.01 61.90 62.50 62.68 61.24 58.67 59.50
35.70 32.80 32.10 33.65 33.47 34.27 34.95 35.82 36.62 37.71 39.18 41.04 44.52 46.60 35.02 45.31 50.23 50.39 53.83 54.56 55.11 58.11 60.30 59.73 59.36 59.43 59.52 59.41 59.63 59.04 58.33 58.47 59.41 60.82 61.84 62.39 62.16 61.29 62.57 63.27 62.95 60.50 60.28
37.86 34.62 31.33 31.80 32.32 33.04 33.85 34.88 34.87 35.60 36.97 37.96 41.72 43.62 38.37 49.40 50.18 51.72 54.03 55.74 57.83 58.91 60.15 59.89 59.42 59.60 59.57 59.86 60.88 60.88 59.63 60.01 61.54 62.02 62.15 62.18 62.61 63.22 63.55 63.29 62.36 58.54 56.30
37.18 36.76 34.27 31.43 30.97 31.10 32.47 33.13 33.84 34.40 35.91 38.08 39.29 39.70 40.58 44.29 50.67 51.32 53.25 57.90 59.19 59.22 59.73 60.30 60.42 59.63 60.08 61.03 61.97 62.22 61.55 61.65 62.27 62.95 62.50 62.26 61.87 62.65 60.91 60.10 59.49 58.06 57.32
37.37 36.17 35.42 33.18 31.67 30.42 30.19 31.36 32.16 32.28 33.62 33.98 35.67 37.36 38.28 39.39 41.71 44.11 51.16 53.60 57.44 58.71 59.45 59.75 59.95 60.52 60.54 60.05 60.43 60.35 60.74 59.13 61.51 61.27 61.85 62.60 62.33 60.74 60.31 59.59 60.45 59.91 58.46
37.21 36.07 34.44 33.49 33.18 32.25 30.14 30.13 30.26 30.85 31.56 32.03 33.32 34.41 36.23 36.47 40.46 41.04 41.71 43.32 52.22 56.81 55.82 55.56 59.66 59.37 60.22 60.16 60.00 57.69 42.25 35.42 52.46 40.45 59.91 60.06 61.18 62.08 61.40 57.81 56.18 54.24 53.50
36.26 35.56 33.92 32.77 32.53 32.06 32.58 31.56 30.63 29.87 30.06 30.57 31.75 33.18 33.50 35.04 36.42 38.44 40.61 41.80 45.33 51.32 52.49 54.42 58.19 57.21 59.53 59.73 55.71 39.03 35.17 34.67 46.95 35.22 57.00 59.66 59.29 61.55 59.94 54.26 51.21 50.47 50.83
MSLP
1011.57 1011.81 1012.02 1012.10 1012.32 1012.34 1012.17 1012.33 1011.87 1011.49 1011.40 1011.15 1010.73 1010.48 1010.08 1009.94 1009.81 1009.58 1009.05 1008.80 1008.28 1007.69 1007.26 1006.55 1005.78 1005.52 1004.89 1004.21 1003.84 1003.44 1003.17 1002.71 1001.65 1001.62 1001.62 1001.16 1001.03 1001.14 1001.45 1001.91 1002.13 1002.10 1001.59
1011.49 1011.73 1011.91 1012.13 1012.14 1011.96 1011.63 1011.62 1011.14 1010.92 1010.86 1010.65 1010.10 1010.00 1009.43 1009.10 1009.19 1008.74 1008.42 1008.19 1007.67 1007.21 1006.78 1006.17 1005.31 1004.70 1003.95 1003.75 1003.62 1002.93 1002.39 1002.17 1001.77 1001.15 1001.39 1001.08 1000.59 1000.45 1000.76 1001.35 1001.54 1001.37 1001.10
1011.77 1011.74 1011.68 1011.65 1011.65 1011.34 1011.12 1010.91 1010.87 1010.49 1010.17 1009.87 1009.73 1009.05 1008.81 1008.63 1008.32 1008.02 1007.70 1007.35 1006.98 1006.56 1006.20 1005.72 1005.03 1004.41 1003.50 1002.97 1002.72 1002.28 1001.91 1001.76 1001.49 1000.98 1000.68 1000.55 1000.27 1000.24 1000.18 1000.73 1000.98 1000.97 1000.72
1011.52 1011.49 1011.48 1011.55 1011.51 1011.46 1011.28 1011.00 1010.57 1010.22 1009.75 1009.32 1008.96 1008.57 1008.24 1007.96 1007.57 1007.13 1006.84 1006.54 1006.26 1005.84 1005.79 1005.58 1005.06 1004.21 1003.29 1002.73 1002.21 1001.90 1001.73 1001.43 1000.83 1000.47 1000.35 999.97 999.63 999.91 1000.19 1000.37 1000.40 999.94 999.91
1011.77 1011.58 1011.35 1011.28 1011.24 1010.99 1010.73 1010.46 1010.07 1009.64 1009.09 1008.70 1008.32 1007.98 1007.69 1007.54 1007.13 1006.83 1006.73 1006.24 1005.73 1005.33 1004.98 1004.61 1004.10 1003.60 1003.19 1002.70 1002.12 1001.43 1001.14 1000.76 1000.18 999.43 999.54 999.43 999.34 999.35 999.41 999.75 999.55 999.25 999.82
1011.77 1011.39 1011.05 1010.75 1010.55 1010.56 1010.38 1009.92 1009.38 1008.84 1008.42 1008.18 1007.92 1007.67 1007.39 1007.36 1007.20 1007.01 1006.86 1006.15 1005.58 1004.96 1004.35 1003.87 1003.25 1002.97 1002.08 1001.56 1001.34 1000.86 1000.60 1000.35 1000.06 999.70 999.40 998.94 998.65 998.81 999.06 999.10 999.10 999.00 999.52
1011.67 1011.15 1010.71 1010.35 1010.19 1010.05 1009.75 1009.19 1008.60 1008.33 1008.14 1007.84 1007.65 1007.66 1007.03 1006.45 1006.16 1005.99 1005.85 1005.22 1004.40 1003.97 1003.57 1003.07 1002.18 1001.56 1001.09 999.91 999.31 999.38 999.27 999.24 999.25 999.11 998.46 998.10 997.92 998.04 998.16 998.36 998.39 998.39 998.37
1011.65 1011.14 1010.72 1010.41 1010.26 1010.06 1009.60 1008.71 1008.31 1008.00 1007.71 1007.44 1007.06 1006.23 1005.75 1005.50 1005.26 1005.00 1004.79 1004.26 1003.56 1003.04 1002.83 1002.36 1001.14 1000.28 999.72 999.20 998.20 997.80 997.36 997.05 997.02 997.27 997.01 996.90 997.06 996.98 997.32 997.26 997.67 998.24 998.09
1011.61 1011.23 1011.00 1010.82 1010.55 1009.90 1009.08 1008.45 1007.95 1007.66 1007.33 1006.80 1006.14 1005.62 1005.48 1004.98 1004.45 1004.09 1003.96 1003.35 1002.53 1002.01 1001.71 1000.64 999.67 999.05 998.41 998.53 998.20 996.99 996.47 996.38 996.44 996.44 995.83 995.80 996.35 996.81 996.95 997.09 997.47 997.91 998.16
1011.92 1011.64 1011.55 1011.23 1010.44 1009.60 1008.92 1008.18 1007.64 1007.51 1006.86 1006.42 1005.84 1005.63 1004.98 1004.12 1003.35 1003.09 1002.97 1001.97 1001.58 1001.04 1000.38 999.03 998.84 998.32 997.81 997.93 997.76 996.47 995.67 995.09 995.04 995.55 995.47 995.59 995.77 996.02 996.59 996.45 996.83 997.51 998.02
1012.11 1011.84 1011.44 1010.84 1010.04 1009.25 1008.48 1007.74 1007.35 1006.91 1006.61 1006.16 1005.49 1004.78 1004.13 1003.07 1002.45 1002.40 1002.15 1001.88 1001.10 1000.28 999.48 998.40 997.02 996.89 997.29 996.94 996.67 995.95 994.51 994.26 994.39 994.72 994.60 995.09 995.18 995.25 995.23 995.81 996.31 997.01 997.75
1012.13 1011.57 1010.95 1010.26 1009.45 1008.51 1007.86 1007.42 1007.02 1006.58 1006.13 1005.46 1004.70 1003.89 1003.07 1002.11 1001.96 1001.81 1001.42 1001.01 1000.41 999.80 998.91 998.24 997.19 997.11 996.65 996.22 996.10 995.13 994.46 994.10 993.98 994.17 994.42 994.40 994.58 994.30 994.06 994.79 995.84 996.79 997.74
1011.84 1011.15 1010.52 1009.65 1008.75 1008.06 1007.59 1007.05 1006.37 1006.08 1005.50 1004.71 1003.93 1002.91 1002.02 1001.40 1001.24 1000.92 1000.62 1000.05 999.43 998.87 998.27 997.49 997.46 997.29 996.13 995.34 995.30 994.93 994.68 994.11 994.08 993.92 994.18 994.11 993.93 994.78 994.41 994.80 996.19 996.98 997.30
1011.50 1010.79 1010.07 1009.25 1008.42 1007.86 1007.17 1006.53 1006.11 1005.58 1004.94 1004.24 1003.24 1001.99 1001.54 1000.91 1000.62 1000.33 999.78 999.27 998.33 997.67 997.34 997.45 996.90 996.28 995.87 995.49 995.24 994.80 994.66 994.74 994.25 994.39 994.63 994.79 995.15 995.19 995.43 996.06 996.52 997.16 997.71
1011.19 1010.49 1009.77 1009.12 1008.39 1007.62 1007.18 1006.42 1005.82 1005.01 1004.61 1003.99 1002.98 1001.73 1000.93 1000.86 1000.23 1000.24 1000.15 999.61 998.73 997.73 997.47 996.75 996.07 995.33 994.63 994.17 994.45 994.49 994.31 994.69 994.78 995.05 995.29 995.50 995.47 995.69 996.28 997.01 997.35 997.81 998.33
1011.03 1010.34 1009.71 1009.01 1008.22 1007.52 1006.71 1005.68 1005.07 1004.52 1003.74 1003.09 1002.45 1001.98 1001.02 1000.98 1000.43 1000.08 1000.02 998.93 998.77 997.88 997.41 996.13 995.25 995.00 994.39 993.99 993.97 994.24 994.29 994.50 994.86 995.05 995.20 995.40 995.41 995.78 996.64 997.34 997.71 998.02 998.79
1011.14 1010.49 1009.76 1009.10 1008.41 1007.58 1006.77 1005.94 1004.98 1003.59 1002.94 1002.00 1001.33 1000.81 1000.86 1000.27 1000.15 1000.09 999.46 998.84 998.24 997.81 996.56 995.48 994.63 994.39 994.16 993.81 994.07 994.26 994.23 994.67 994.99 995.12 995.14 995.17 995.17 996.23 997.04 997.51 997.92 998.17 999.12
1011.32 1010.68 1009.98 1009.22 1008.51 1007.73 1006.95 1006.12 1005.40 1004.34 1003.05 1001.57 999.85 1000.33 1000.04 999.90 999.36 999.30 998.90 998.45 998.01 997.56 996.06 995.17 994.10 994.05 993.91 994.10 994.41 994.40 994.76 994.80 994.78 994.67 994.73 994.95 995.74 996.39 997.01 997.56 998.07 998.42 999.34
1011.45 1010.87 1010.29 1009.47 1008.76 1008.06 1007.24 1006.35 1005.35 1004.33 1003.22 1001.92 1000.31 1000.11 999.66 999.31 998.91 998.60 998.69 997.98 997.59 996.93 996.24 994.84 994.23 994.33 994.60 994.77 994.71 994.63 994.78 994.98 994.98 994.62 994.59 994.76 995.59 996.08 996.67 997.58 998.18 998.84 999.70
1011.66 1011.31 1010.65 1009.84 1009.14 1008.37 1007.61 1006.73 1005.76 1004.81 1003.62 1001.92 1001.10 1000.81 999.92 999.81 999.00 998.65 998.13 997.86 997.30 997.06 996.32 995.01 995.01 994.97 994.82 994.80 994.94 994.91 995.10 995.18 995.14 995.00 995.13 995.33 995.30 995.28 996.22 997.14 998.02 998.99 999.49
1011.73 1011.56 1011.07 1010.34 1009.70 1009.12 1008.34 1007.51 1006.66 1005.74 1004.71 1003.64 1002.63 1001.82 1000.93 1000.47 999.49 998.92 998.36 998.10 997.85 997.22 996.24 995.68 995.22 995.03 995.06 995.10 994.95 994.99 995.20 995.33 995.44 995.43 995.47 995.74 995.78 995.80 996.03 997.10 998.05 998.96 999.66
1011.90 1011.85 1011.58 1011.07 1010.53 1009.86 1009.16 1008.39 1007.61 1006.78 1005.98 1005.12 1003.95 1002.99 1002.09 1001.18 1000.46 999.47 998.73 998.04 997.43 997.20 996.67 996.18 995.85 995.77 995.70 995.60 995.43 995.39 995.52 995.68 995.74 995.77 995.89 996.06 996.36 997.04 997.19 996.96 998.14 999.42 1000.11
1012.50 1012.13 1012.02 1011.82 1011.37 1010.81 1009.98 1009.30 1008.51 1007.79 1006.99 1006.35 1005.51 1004.59 1003.75 1002.79 1001.48 1000.68 999.35 997.95 997.47 997.39 997.41 996.96 996.36 996.31 996.61 996.80 996.52 996.32 996.32 996.31 996.37 996.31 996.78 996.84 997.03 997.43 998.36 998.77 999.04 999.67 1000.23
1012.91 1012.68 1012.46 1012.35 1012.08 1011.69 1011.14 1010.44 1009.81 1009.00 1008.33 1007.66 1007.10 1006.30 1005.26 1004.22 1003.49 1002.68 1001.17 1000.45 998.84 998.78 998.96 998.60 998.14 997.68 997.77 997.60 997.49 997.60 998.21 998.20 997.52 997.64 997.47 997.45 997.82 997.99 998.87 999.34 999.20 999.77 1000.51
1013.71 1013.39 1013.20 1012.94 1012.59 1012.33 1011.99 1011.41 1010.90 1010.26 1009.58 1008.79 1008.05 1007.52 1006.52 1006.22 1005.27 1004.01 1003.58 1003.06 1001.28 999.72 1000.23 999.76 999.43 999.34 998.76 998.74 998.54 999.33 1000.21 999.74 999.31 998.70 998.07 998.13 998.15 998.63 999.35 1000.06 1000.48 1001.12 1001.48
1014.56 1014.20 1014.08 1013.92 1013.51 1013.16 1012.61 1012.12 1011.75 1011.40 1010.71 1010.09 1009.38 1008.58 1008.00 1007.08 1006.39 1005.75 1005.16 1004.41 1003.34 1002.17 1001.80 1001.50 1000.44 1000.06 999.64 999.67 1000.46 1000.78 1000.78 1000.63 1000.69 1000.16 999.56 998.93 998.67 998.76 1000.09 1000.88 1001.30 1001.62 1002.13
Wind_Speed
4 6 7 8 9 10 10 12 12 12 13 14 14 13 13 13 14 14 15 17 19 18 19 20 21 19 17 16 15 14 14 15 17 13 15 15 14 13 11 10 10 12 11
7 8 9 10 11 12 11 13 12 13 13 13 13 14 14 14 14 15 16 16 18 19 20 21 22 16 21 19 16 19 17 16 15 18 15 15 16 13 11 12 11 12 12
8 9 10 11 12 13 13 13 13 14 14 14 14 14 14 14 15 16 16 17 18 19 19 20 21 20 20 17 17 16 16 14 15 16 15 14 13 14 11 10 10 13 12
10 11 12 12 12 12 12 13 12 13 13 13 13 14 14 16 17 18 18 19 18 18 15 15 18 21 22 21 18 18 16 16 16 14 15 14 14 12 9 6 10 11 10
11 12 12 12 12 12 12 13 13 13 12 12 13 15 16 15 14 17 14 16 16 17 16 16 18 20 27 23 15 16 17 15 16 15 12 14 10 13 11 9 12 11 7
12 13 12 12 11 11 13 13 13 12 12 13 14 16 18 13 17 20 17 16 19 18 17 17 18 21 23 28 28 27 22 18 18 15 13 13 14 13 9 10 10 9 5
13 13 13 12 12 12 14 14 12 12 13 15 15 15 16 16 15 15 18 20 19 16 17 16 19 16 22 23 23 21 22 21 21 19 18 15 16 15 13 13 15 10 9
13 13 13 12 12 13 14 14 13 13 14 15 14 16 17 14 16 17 20 20 20 17 17 19 21 21 20 21 20 20 20 17 18 15 20 17 16 15 16 14 14 11 9
13 13 13 13 14 15 14 14 13 13 14 14 15 14 15 16 19 12 17 16 16 16 16 22 19 21 23 15 19 20 18 15 9 14 15 15 19 14 13 10 11 11 8
13 13 13 13 15 14 15 15 13 12 13 11 14 13 18 18 19 14 15 11 13 12 19 19 21 23 20 17 18 17 17 17 15 9 5 6 11 19 17 15 10 11 10
13 13 13 13 15 15 15 13 11 14 12 12 15 14 13 19 11 11 16 11 11 12 13 12 14 7 15 17 14 14 18 13 8 8 7 4 5 6 11 14 13 11 9
13 13 14 14 12 12 14 13 14 12 13 12 13 10 12 11 8 15 16 18 16 12 12 12 10 15 9 3 11 11 4 4 7 6 4 6 4 1 9 13 11 8 5
14 14 13 15 12 12 12 13 12 10 10 10 9 11 10 10 8 13 15 17 18 12 11 12 12 16 10 3 7 4 4 3 5 6 4 6 8 3 8 10 11 14 10
14 14 12 13 12 12 9 8 8 8 8 8 10 11 10 9 8 8 9 11 15 6 9 8 8 1 2 1 2 3 2 2 6 6 4 5 5 4 6 8 9 9 9
13 12 11 10 11 11 10 9 10 10 9 10 12 11 12 9 10 12 13 12 9 8 5 5 4 4 2 5 6 5 4 7 7 6 6 5 5 5 7 7 7 8 7
12 10 8 9 9 8 9 11 9 13 17 18 17 14 9 12 18 20 17 21 11 7 4 4 3 3 2 4 5 5 5 8 7 6 7 7 7 7 7 7 7 8 8
11 11 9 9 9 9 9 9 10 14 16 19 16 17 13 16 14 14 15 13 4 6 5 3 3 5 4 5 7 4 6 7 8 7 7 6 6 9 7 6 7 8 11
12 15 10 9 8 9 8 9 8 8 10 12 7 13 8 13 14 10 9 4 2 4 3 2 7 5 6 7 7 6 7 5 5 5 6 7 7 10 8 7 8 9 10
11 10 11 9 8 10 8 9 8 9 9 10 9 4 4 11 13 2 8 1 6 4 1 1 7 7 7 7 6 7 6 6 4 5 6 7 9 7 9 9 7 9 10
10 17 15 9 9 9 8 9 9 9 10 7 8 10 9 7 7 5 4 1 3 2 1 1 6 6 5 6 5 6 5 6 5 6 6 6 5 5 10 9 9 8 8
9 10 17 10 9 9 9 9 9 9 10 10 10 9 8 3 7 6 1 3 4 5 2 4 3 5 6 6 7 6 6 6 6 6 6 6 4 5 3 10 8 8 8
11 9 11 11 10 11 10 9 9 10 10 10 10 12 14 8 7 7 5 5 7 5 4 4 5 5 6 7 7 7 8 7 6 7 7 7 8 8 6 6 10 7 8
11 12 9 11 11 14 11 11 10 11 10 11 12 11 11 11 10 12 12 10 8 8 7 6 5 5 7 6 8 10 9 9 8 9 8 7 9 8 5 4 6 8 7
12 12 12 10 10 10 11 12 11 13 13 12 12 11 11 11 12 14 11 12 9 9 9 7 8 9 4 5 4 10 10 10 8 8 8 6 6 6 5 2 3 6 5
12 12 13 12 11 9 9 11 11 12 12 11 10 11 11 9 12 12 10 12 13 11 11 10 7 6 6 6 8 14 8 9 10 10 7 8 7 6 6 5 5 5 5
12 12 12 12 12 12 11 10 10 11 11 11 11 12 11 10 11 11 11 12 12 12 12 10 10 12 9 6 13 8 6 7 9 9 8 7 5 5 6 7 8 5 7
Wind_Direction
319 316 303 298 292 286 282 277 278 285 280 278 279 279 279 275 276 276 278 280 276 274 271 270 268 262 258 258 256 257 260 266 275 268 270 268 265 257 263 263 270 269 257
316 308 300 295 291 286 285 285 290 288 283 278 281 277 277 280 279 280 279 280 282 279 275 274 272 265 258 249 256 259 263 270 274 274 271 270 264 264 258 270 274 272 268
307 299 296 296 294 293 294 296 295 294 289 283 279 281 278 279 281 278 279 282 280 276 276 276 275 271 268 261 258 259 251 242 247 259 268 263 256 264 260 251 260 269 263
313 306 300 298 295 288 284 282 282 284 282 279 277 279 283 284 284 286 285 284 283 278 278 273 283 282 268 268 261 257 254 259 264 259 262 260 256 249 254 261 262 245 240
301 295 292 293 290 290 296 293 291 286 281 282 285 286 288 291 284 290 290 285 288 285 276 274 273 267 265 273 281 269 260 252 254 262 266 258 244 243 243 231 244 250 212
298 294 297 293 293 293 293 289 288 287 288 292 291 293 292 289 277 269 275 277 274 274 274 269 263 279 274 254 257 257 253 257 257 265 263 246 238 236 231 233 239 220 194
305 305 304 305 301 299 296 291 290 295 295 289 293 279 267 272 276 262 262 274 272 270 271 276 274 262 264 266 244 242 239 238 239 254 252 244 237 221 215 225 239 227 200
309 308 308 307 305 300 290 289 293 289 294 291 275 279 291 294 283 272 266 275 274 274 269 269 265 263 256 266 259 257 254 252 254 237 237 235 240 235 226 220 231 231 234
311 307 311 311 300 292 292 290 292 297 292 286 288 301 301 291 280 290 282 279 274 268 261 263 259 261 258 262 271 265 268 256 247 258 250 234 223 237 240 222 221 210 201
314 313 309 297 289 289 288 291 296 288 285 298 294 292 275 287 289 260 267 284 270 264 263 267 260 253 268 265 268 261 251 245 247 231 200 209 233 231 211 211 190 197 179
311 305 296 292 291 286 284 286 295 296 292 285 284 284 281 291 293 310 287 284 276 279 282 278 268 268 249 242 247 255 260 265 193 212 178 178 187 210 201 197 188 174 165
307 302 298 292 288 288 292 296 286 292 286 281 282 287 288 290 306 289 286 286 278 269 270 277 292 339 286 234 267 249 251 224 158 145 130 144 142 59 163 150 133 124 177
311 306 302 297 294 297 293 287 289 291 287 285 287 297 306 303 287 279 280 281 281 260 260 267 294 286 283 246 63 252 267 80 120 107 91 80 77 16 88 110 132 150 141
314 312 309 307 309 297 288 294 298 289 291 292 292 309 311 300 293 298 310 318 312 220 246 273 253 231 72 260 171 287 192 131 78 70 49 102 120 103 100 116 113 111 108
320 317 318 312 308 308 301 296 291 293 284 294 291 303 308 303 295 303 306 309 304 312 286 255 239 296 45 126 132 150 131 143 114 115 126 123 121 129 114 120 127 130 121
324 325 320 316 317 312 310 311 283 265 280 286 267 262 285 258 281 290 297 294 294 264 237 225 248 262 104 145 114 98 121 110 118 125 142 153 177 138 139 148 156 140 125
331 329 323 324 319 322 322 320 318 320 309 283 263 261 252 273 280 284 289 283 8 334 248 182 189 120 115 94 86 104 87 100 131 144 152 178 134 119 133 139 126 140 131
342 341 337 330 326 325 325 317 309 306 308 307 284 231 268 286 300 299 258 232 77 273 229 213 97 91 76 84 87 90 104 134 125 141 146 141 131 139 139 140 143 143 137
352 347 340 332 331 332 326 324 324 321 314 308 315 166 231 327 313 341 219 208 154 194 285 309 76 78 81 77 69 74 70 96 127 104 96 100 131 132 139 145 136 137 130
354 351 348 342 341 343 346 341 340 336 333 327 15 3 353 334 354 11 132 175 23 202 210 91 72 73 81 79 79 87 99 105 100 89 84 80 67 124 134 136 131 142 149
13 357 351 356 355 351 349 348 348 351 357 359 348 353 336 331 349 331 338 171 207 201 159 80 91 61 75 58 49 58 73 84 86 86 79 71 58 79 92 136 139 151 155
2 19 1 360 356 356 353 355 354 357 1 358 352 359 349 8 358 6 26 135 123 82 65 53 47 56 51 47 41 55 66 76 77 74 65 51 54 46 27 41 106 102 116
5 5 18 7 5 358 358 2 0 3 358 9 6 359 358 354 9 19 11 28 62 52 43 31 25 71 60 41 26 42 52 56 48 51 47 31 41 57 69 101 139 139 149
12 10 8 13 7 5 3 2 5 8 0 6 5 8 357 357 7 355 13 9 16 43 27 17 16 26 56 45 40 61 39 13 41 51 38 59 36 78 85 41 86 90 123
9 11 12 6 10 360 7 5 6 5 5 358 1 7 4 6 1 358 10 359 355 27 22 0 7 357 15 13 34 72 31 13 20 328 34 22 39 45 68 93 83 84 117
10 15 11 6 7 4 8 359 9 4 2 360 358 1 2 3 2 1 3 3 358 358 6 341 7 360 5 347 50 70 52 21 23 357 341 19 359 78 88 112 116 116 122